Simultaneous Nadir Overpasses (SNOs) Predictions

Prediction of SNOs near US between AQUA and NPP Satellite Orbit:

Table of predicted SNOs near US for the next 10.0 days since TLE Epoch: 10/22/2022
Index Date (AQUA) Time (AQUA) AQUA Lat,Lon Date (NPP) Time (NPP) NPP Lat,Lon Distance(km) Time Diff (sec)
1 10/22/2022 20:25:40 49.99,-110.97 10/22/2022 20:18:20 49.57,-113.50 187.32 440
2 10/28/2022 06:58:46 44.74, -71.09 10/28/2022 06:57:18 45.23, -74.02 237.17 88
3 10/30/2022 19:33:28 49.96, -97.87 10/30/2022 19:27:30 49.45,-100.74 214.23 358
